Time,TemperatureF,DewpointF,PressureIn,WindDirection,WindDirectionDegrees,WindSpeedMPH,WindSpeedGustMPH,Humidity,HourlyPrecipIn,Conditions,Clouds,dailyrainin,SolarRadiationWatts/m^2,SoftwareType,DateUTC
2013-01-17 00:50:00,-5.0,-9.0,30.46,SSE,153,2.0,3.0,83,-99.99,,,-99.99,0.000000,,2013-01-17 08:50:00,
2013-01-17 01:50:00,-6.0,-11.0,30.46,South,176,5.0,7.0,80,-99.99,,,-99.99,0.000000,,2013-01-17 09:50:00,
2013-01-17 02:50:00,-10.0,-15.0,30.45,SSE,168,2.0,5.0,80,-99.99,,,-99.99,0.000000,,2013-01-17 10:50:00,
2013-01-17 03:50:00,-9.0,-14.0,30.46,South,174,5.0,7.0,78,-99.99,,,-99.99,0.000000,,2013-01-17 11:50:00,
2013-01-17 04:50:00,-7.0,-11.0,30.46,South,184,4.0,7.0,81,-99.99,,,-99.99,0.000000,,2013-01-17 12:50:00,
2013-01-17 06:23:00,-10.0,-15.0,30.46,South,176,5.0,8.0,79,-99.99,,,-99.99,0.000000,,2013-01-17 14:23:00,
2013-01-17 06:33:00,-10.0,-15.0,30.46,South,176,5.0,8.0,79,-99.99,,,-99.99,0.000000,,2013-01-17 14:33:00,
2013-01-17 06:50:00,-8.0,-13.0,30.48,South,170,4.0,6.0,80,-99.99,,,-99.99,0.000000,,2013-01-17 14:50:00,
2013-01-17 08:22:00,-4.0,-9.0,30.48,South,178,4.0,6.0,79,-99.99,,,-99.99,60.000000,,2013-01-17 16:22:00,
2013-01-17 08:33:00,-4.0,-9.0,30.48,South,178,4.0,6.0,79,-99.99,,,-99.99,60.000000,,2013-01-17 16:33:00,
2013-01-17 08:50:00,3.0,-5.0,30.49,South,179,5.0,7.0,70,-99.99,,,-99.99,280.000000,,2013-01-17 16:50:00,
2013-01-17 09:50:00,17.0,5.0,30.47,South,187,2.0,4.0,59,-99.99,,,-99.99,450.000000,,2013-01-17 17:50:00,
2013-01-17 10:50:00,27.0,7.0,30.46,South,176,1.0,3.0,42,-99.99,,,-99.99,540.000000,,2013-01-17 18:50:00,
2013-01-17 11:50:00,31.0,9.0,30.42,SSW,194,1.0,2.0,40,-99.99,,,-99.99,570.000000,,2013-01-17 19:50:00,
2013-01-17 12:50:00,29.0,12.0,30.40,NW,320,4.0,5.0,49,-99.99,,,-99.99,540.000000,,2013-01-17 20:50:00,
2013-01-17 13:50:00,30.0,12.0,30.37,NW,309,3.0,5.0,47,-99.99,,,-99.99,450.000000,,2013-01-17 21:50:00,
2013-01-17 14:22:00,30.0,12.0,30.37,NW,309,3.0,5.0,47,-99.99,,,-99.99,450.000000,,2013-01-17 22:22:00,
2013-01-17 14:33:00,30.0,12.0,30.37,NW,309,3.0,5.0,47,-99.99,,,-99.99,450.000000,,2013-01-17 22:33:00,
2013-01-17 14:42:00,30.0,12.0,30.37,NW,309,3.0,5.0,47,-99.99,,,-99.99,450.000000,,2013-01-17 22:42:00,
2013-01-17 14:50:00,31.0,12.0,30.37,NW,304,2.0,3.0,45,-99.99,,,-99.99,310.000000,,2013-01-17 22:50:00,
2013-01-17 15:50:00,34.0,9.0,30.38,NW,314,0.0,1.0,35,-99.99,,,-99.99,150.000000,,2013-01-17 23:50:00,
2013-01-17 16:50:00,15.0,5.0,30.37,SSE,159,3.0,4.0,63,-99.99,,,-99.99,10.000000,,2013-01-18 00:50:00,
2013-01-17 17:50:00,5.0,0.0,30.37,SSE,161,1.0,2.0,80,-99.99,,,-99.99,0.000000,,2013-01-18 01:50:00,
2013-01-17 18:50:00,0.0,-4.0,30.39,South,170,3.0,4.0,82,-99.99,,,-99.99,0.000000,,2013-01-18 02:50:00,
2013-01-17 19:50:00,-2.0,-6.0,30.39,South,174,5.0,7.0,82,-99.99,,,-99.99,0.000000,,2013-01-18 03:50:00,
2013-01-17 20:50:00,-3.0,-9.0,30.39,SSE,167,4.0,6.0,77,-99.99,,,-99.99,0.000000,,2013-01-18 04:50:00,
2013-01-17 22:50:00,-3.0,-7.0,30.39,SSW,192,4.0,6.0,82,-99.99,,,-99.99,0.000000,,2013-01-18 06:50:00,
2013-01-17 23:50:00,-2.0,-6.0,30.39,South,182,4.0,7.0,85,-99.99,,,-99.99,0.000000,,2013-01-18 07:50:00,